PBO Station Position Time Series. Reference Frame : NAM14
Format Version,1.1.1
4-character ID,CSHQ
Station name,Camp_Schurmann
Begin Date, 2014-09-18
End Date, 2023-06-26
Release Date, 2023-06-27
Reference position, 46.8707272047 North Latitude, -121.7324313439 East Longitude, 2882.32726 meters elevation,
Date, North (mm), East (mm), Vertical (mm), North Std. Deviation (mm), East Std. Deviation (mm),              Vertical Std. Deviation (mm), Quality,
2014-09-18,0.00, 0.00, 0.00, 2.44, 1.68, 7.24, repro,
2014-09-19,-4.01, 2.82, -6.13, 2.51, 1.70, 7.46, repro,
2014-09-20,-1.84, -2.20, -8.87, 2.40, 1.66, 7.22, repro,
2014-09-21,-6.65, -6.78, -16.96, 2.39, 1.67, 7.37, repro,
2014-09-22,7.22, 1.56, -3.31, 2.39, 1.67, 7.35, repro,
2014-09-23,2.94, 1.35, -3.93, 2.44, 1.69, 7.40, repro,
2014-09-24,2.87, 0.69, -17.73, 2.58, 1.86, 8.14, repro,
2014-09-25,-1.24, -3.59, -10.04, 2.38, 1.67, 7.28, repro,
2014-09-26,-4.69, -8.11, -36.22, 2.55, 1.74, 7.63, repro,
2014-09-27,-0.99, -2.89, -16.84, 2.39, 1.67, 7.43, repro,
2014-09-28,0.43, -1.71, -5.38, 2.41, 1.68, 7.34, repro,
2014-09-29,-4.29, -5.99, -8.21, 2.40, 1.68, 7.39, repro,
2014-09-30,0.39, -3.49, -8.16, 2.38, 1.67, 7.31, repro,
2014-10-01,-2.08, -0.94, -9.25, 2.40, 1.67, 7.34, repro,
2014-10-02,-2.83, 0.62, -9.75, 2.50, 1.72, 7.62, repro,
2014-10-03,-2.05, -2.03, -11.45, 2.39, 1.68, 7.37, repro,
2014-10-04,-6.94, -0.15, -24.56, 2.43, 1.69, 7.44, repro,
2014-10-05,-3.95, -0.35, -12.15, 2.44, 1.68, 7.43, repro,
2014-10-06,-2.73, -2.40, -6.83, 2.42, 1.68, 7.39, repro,
2014-10-07,-1.68, -3.14, -10.98, 2.41, 1.70, 7.44, repro,
2014-10-08,-0.63, -5.05, 0.23, 2.42, 1.68, 7.44, repro,
2014-10-09,-0.05, -3.83, -10.06, 2.41, 1.68, 7.41, repro,
2014-10-10,-2.47, -3.40, -10.51, 2.43, 1.68, 7.39, repro,
2014-10-11,1.22, -0.16, 3.80, 2.41, 1.69, 7.38, repro,
2014-10-12,-0.68, -1.39, -1.55, 2.42, 1.70, 7.42, repro,
2014-10-13,-0.26, 1.22, -5.44, 2.42, 1.70, 7.61, repro,
2014-10-14,-0.56, 2.63, -21.17, 2.51, 1.77, 7.89, repro,
2014-10-15,-0.71, 0.00, -11.81, 2.40, 1.68, 7.33, repro,
2014-10-16,-7.40, -7.31, -19.81, 2.41, 1.69, 7.32, repro,
2014-10-17,-0.37, -0.69, -16.11, 2.39, 1.70, 7.45, repro,
2014-10-18,-3.31, 4.79, -29.58, 2.50, 1.74, 7.73, repro,
2014-10-19,-6.31, -3.16, -13.31, 2.46, 1.72, 7.53, repro,
2014-10-20,1.68, 2.19, -7.99, 2.41, 1.68, 7.36, repro,
2014-10-21,-4.74, -3.02, -6.10, 2.47, 1.71, 7.46, repro,
2014-10-22,-0.36, -1.23, -25.39, 2.46, 1.72, 7.45, repro,
2014-10-23,-2.28, 0.77, -8.12, 2.40, 1.70, 7.49, repro,
2014-10-24,-1.15, -0.09, -10.78, 2.39, 1.69, 7.40, repro,
2014-10-25,5.66, 1.69, -10.53, 2.40, 1.69, 7.40, repro,
2014-10-26,0.72, 0.36, -9.79, 2.37, 1.68, 7.32, repro,
2014-10-27,-0.81, -1.60, -11.83, 2.45, 1.73, 7.58, repro,
2014-10-28,-0.10, 3.14, -6.68, 2.51, 1.75, 7.71, repro,
2014-10-29,-2.89, -0.69, -8.85, 2.38, 1.68, 7.40, repro,
2014-10-30,2.67, 0.78, -20.16, 2.38, 1.68, 7.39, repro,
2014-10-31,0.39, -2.70, -16.89, 2.37, 1.70, 7.40, repro,
2014-11-01,-0.95, -3.50, -18.06, 2.44, 1.77, 7.62, repro,
2014-11-02,-2.95, -0.37, -11.72, 2.43, 1.71, 7.44, repro,
2014-11-03,-3.14, -4.01, -18.40, 2.40, 1.71, 7.49, repro,
2014-11-04,-4.60, -1.09, -17.74, 2.41, 1.70, 7.53, repro,
2014-11-05,-1.80, 3.60, -14.48, 2.42, 1.73, 7.54, repro,
2014-11-06,1.86, 3.23, -14.39, 2.44, 1.71, 7.49, repro,
2014-11-07,-1.49, -2.50, -9.80, 2.47, 1.73, 7.49, repro,
2014-11-08,-5.05, 2.09, -15.69, 2.42, 1.71, 7.56, repro,
2014-11-09,-0.98, 1.24, -9.91, 2.42, 1.70, 7.49, repro,
2014-11-10,0.25, -0.07, -10.71, 2.39, 1.71, 7.48, repro,
2014-11-11,0.82, -0.39, -18.08, 2.40, 1.70, 7.36, repro,
2014-11-12,0.26, -1.24, -14.74, 2.45, 1.71, 7.49, repro,
2014-11-13,-2.07, -1.75, -14.82, 2.42, 1.71, 7.47, repro,
2014-11-14,-1.06, -0.17, -19.13, 2.39, 1.69, 7.44, repro,
2014-11-15,0.78, -1.09, -10.83, 2.38, 1.71, 7.54, repro,
2014-11-16,-1.83, -3.24, -18.01, 2.40, 1.71, 7.47, repro,
2014-11-17,-1.06, -1.54, -17.11, 2.46, 1.75, 7.60, repro,
2014-11-18,-2.71, -1.82, -15.91, 2.45, 1.73, 7.51, repro,
2014-11-19,-1.99, -2.62, -19.01, 2.42, 1.71, 7.55, repro,
2014-11-20,-7.56, -10.41, -21.68, 2.56, 1.76, 7.90, repro,
2014-11-21,-6.74, -6.72, -8.42, 2.53, 1.76, 7.84, repro,
2014-11-22,0.25, 0.28, 1.27, 2.55, 1.76, 7.82, repro,
2014-11-23,0.86, 0.39, -0.65, 2.49, 1.73, 7.67, repro,
2014-11-24,-1.43, -0.88, -9.02, 2.50, 1.74, 7.69, repro,
2014-11-25,-1.62, 1.00, -23.45, 2.48, 1.72, 7.70, repro,
2014-11-26,0.02, 2.29, -18.44, 2.51, 1.73, 7.81, repro,
2014-11-27,1.02, 1.59, -12.88, 2.44, 1.70, 7.56, repro,
2014-11-28,-1.91, -2.28, -0.96, 2.43, 1.70, 7.49, repro,
2014-11-29,0.71, -1.96, -9.18, 2.48, 1.75, 7.64, repro,
2014-11-30,-1.33, -1.07, -13.47, 2.39, 1.69, 7.42, repro,
2014-12-01,-2.31, -1.32, -17.20, 2.44, 1.69, 7.52, repro,
2014-12-02,-4.52, -0.81, -8.21, 2.50, 1.73, 7.63, repro,
2014-12-03,-1.39, -1.73, -16.24, 2.43, 1.71, 7.56, repro,
2014-12-04,-3.43, -3.74, -23.04, 2.45, 1.70, 7.53, repro,
2014-12-05,-3.58, -2.97, -6.15, 2.45, 1.70, 7.53, repro,
2014-12-06,2.19, 0.41, -20.28, 2.41, 1.69, 7.53, repro,
2014-12-07,-5.93, -2.75, -23.70, 2.50, 1.75, 7.79, repro,
2014-12-08,-2.38, -1.00, -10.29, 2.49, 1.73, 7.66, repro,
2014-12-09,4.10, 7.33, -18.44, 2.50, 1.72, 7.65, repro,
2014-12-10,3.73, 1.04, -19.93, 2.49, 1.71, 7.59, repro,
2014-12-11,0.59, -0.28, -3.91, 2.51, 1.73, 7.80, repro,
2014-12-12,0.69, -1.27, -6.36, 2.52, 1.70, 7.62, repro,
2014-12-13,-1.41, -2.97, -23.39, 2.43, 1.69, 7.47, repro,
2014-12-14,-0.15, -2.06, -20.83, 2.41, 1.68, 7.41, repro,
2014-12-15,-3.76, -3.88, -22.38, 2.43, 1.70, 7.46, repro,
2014-12-16,-1.51, -3.32, -22.69, 2.50, 1.73, 7.59, repro,
2014-12-17,-1.60, -3.07, -15.42, 2.49, 1.70, 7.47, repro,
2014-12-18,-3.26, -0.83, -17.99, 2.40, 1.68, 7.38, repro,
2014-12-19,0.54, 1.30, -17.32, 2.42, 1.72, 7.58, repro,
2014-12-20,-0.80, 0.35, -18.13, 2.44, 1.69, 7.37, repro,
2014-12-21,-0.85, 0.65, -9.50, 2.44, 1.70, 7.47, repro,
2014-12-22,-0.01, 1.07, -18.84, 2.44, 1.67, 7.41, repro,
2014-12-23,-1.37, -0.62, -22.07, 2.44, 1.67, 7.42, repro,
2014-12-24,-1.20, 1.10, -18.61, 2.46, 1.70, 7.42, repro,
2014-12-25,-0.49, 0.90, -11.41, 2.50, 1.75, 7.68, repro,
2014-12-26,-0.43, 0.50, -15.58, 2.42, 1.67, 7.38, repro,
2014-12-27,-4.49, 0.43, -19.99, 2.40, 1.66, 7.35, repro,
2014-12-28,-1.12, 0.19, -23.38, 2.52, 1.71, 7.62, repro,
2014-12-29,-1.08, -1.51, -21.47, 2.52, 1.74, 7.75, repro,
2014-12-30,-0.76, -0.44, -27.77, 2.44, 1.69, 7.52, repro,
2014-12-31,-2.05, -0.21, -26.37, 2.41, 1.67, 7.37, repro,
2015-01-01,-0.26, 0.26, -17.01, 2.48, 1.69, 7.48, repro,
2015-01-02,-2.81, 3.07, -25.03, 2.46, 1.69, 7.43, repro,
2015-01-03,-3.88, -0.53, -28.07, 2.50, 1.68, 7.41, repro,
2015-01-04,-3.67, 2.01, -28.29, 2.49, 1.73, 7.60, repro,
2015-10-03,1.03, -0.19, -11.00, 2.39, 1.68, 7.32, repro,
2015-10-04,-1.40, -1.97, -8.90, 2.35, 1.67, 7.24, repro,
2015-10-05,-0.19, -1.78, -5.13, 2.39, 1.74, 7.46, repro,
2015-10-06,-1.71, -0.71, -8.19, 2.33, 1.69, 7.24, repro,
2015-10-07,-3.43, 9.75, -13.21, 2.33, 1.68, 7.37, repro,
2015-10-08,-5.57, -0.53, 6.41, 2.34, 1.68, 7.29, repro,
2015-10-09,-0.87, 6.73, -1.67, 2.47, 1.74, 7.64, repro,
2015-10-10,2.51, 8.68, -4.66, 2.37, 1.69, 7.37, repro,
2015-10-11,-2.65, 0.42, 0.25, 2.33, 1.70, 7.34, repro,
2015-10-12,2.13, 7.65, 6.29, 2.33, 1.70, 7.40, repro,
2015-10-13,-2.56, 4.85, -1.48, 2.32, 1.69, 7.35, repro,
2015-10-14,-2.85, 2.59, -8.65, 2.36, 1.69, 7.36, repro,
2015-10-15,-2.24, -2.83, -15.80, 2.39, 1.72, 7.36, repro,
2015-10-16,-5.83, -5.61, -16.37, 2.35, 1.69, 7.33, repro,
2015-10-17,5.53, -4.27, -9.94, 2.36, 1.70, 7.40, repro,
2015-10-18,-1.53, -0.85, -10.84, 2.31, 1.68, 7.34, repro,
2015-10-19,-1.44, -1.80, -6.79, 2.32, 1.68, 7.27, repro,
2015-10-20,-1.62, 1.23, -2.84, 2.37, 1.70, 7.50, repro,
2015-10-21,-1.67, 1.26, -15.88, 2.33, 1.67, 7.25, repro,
2015-10-22,-1.49, -0.18, -15.39, 2.36, 1.69, 7.33, repro,
2015-10-23,-1.53, 0.14, -15.62, 2.34, 1.69, 7.34, repro,
2015-10-24,-0.05, 0.36, -3.34, 2.29, 1.67, 7.23, repro,
2015-10-25,10.17, 3.76, -5.49, 2.34, 1.68, 7.31, repro,
2015-10-26,-0.64, 1.94, -10.66, 2.34, 1.67, 7.33, repro,
2015-10-27,-1.78, -1.53, -9.73, 2.33, 1.67, 7.26, repro,
2015-10-28,-2.26, -5.58, -18.70, 2.35, 1.68, 7.32, repro,
2015-10-29,-0.57, 1.49, -1.29, 2.30, 1.67, 7.31, repro,
2015-10-30,0.80, 1.75, 2.06, 2.33, 1.67, 7.34, repro,
2015-10-31,-1.82, 0.17, 1.38, 2.33, 1.67, 7.27, repro,
2015-11-01,1.59, 1.22, 2.54, 2.33, 1.68, 7.32, repro,
2015-11-02,-1.68, -0.84, -10.39, 2.34, 1.69, 7.39, repro,
2015-11-03,-0.63, 1.64, -10.88, 2.37, 1.71, 7.44, repro,
2015-11-04,-1.34, 1.89, -7.60, 2.35, 1.69, 7.37, repro,
2015-11-05,-4.13, 1.81, -16.31, 2.35, 1.69, 7.35, repro,
2015-11-06,-2.26, 1.32, -19.82, 2.37, 1.69, 7.34, repro,
2015-11-07,-1.41, 4.39, -2.03, 2.44, 1.80, 7.84, repro,
2015-11-08,-0.90, 5.38, -7.18, 2.35, 1.70, 7.36, repro,
2015-11-09,-2.80, 4.10, -15.64, 2.43, 1.73, 7.48, repro,
2015-11-10,-2.49, 3.58, -24.68, 2.37, 1.74, 7.50, repro,
2015-11-11,-2.95, 0.12, -8.73, 2.34, 1.71, 7.35, repro,
2015-11-12,-2.33, 3.53, -8.25, 2.39, 1.70, 7.37, repro,
2015-11-13,2.09, 3.39, -14.83, 2.38, 1.70, 7.39, repro,
2015-11-14,-0.58, 2.98, -17.92, 2.34, 1.71, 7.34, repro,
2015-11-15,1.48, 1.45, -4.35, 2.35, 1.69, 7.32, repro,
2015-11-16,-3.32, 1.14, -12.70, 2.37, 1.71, 7.43, repro,
2015-11-17,-1.63, 1.33, -11.10, 2.37, 1.69, 7.36, repro,
2015-11-18,0.91, 0.63, -13.42, 2.38, 1.71, 7.44, repro,
2015-11-19,-2.07, 0.08, -9.26, 2.35, 1.70, 7.40, repro,
2015-11-20,-1.02, 1.34, -15.74, 2.35, 1.69, 7.33, repro,
2015-11-21,-1.19, -0.82, -21.06, 2.34, 1.69, 7.35, repro,
2015-11-22,-2.20, -0.07, -17.33, 3.73, 2.64, 11.14, repro,
2015-11-26,-1.32, -1.50, -19.34, 5.61, 3.35, 16.13, repro,
2015-11-27,-0.31, 0.26, -20.98, 2.35, 1.69, 7.34, repro,
2015-11-28,-0.52, -0.54, -15.26, 2.35, 1.70, 7.35, repro,
2015-11-29,-0.01, -0.41, -14.77, 2.35, 1.69, 7.33, repro,
2015-11-30,-0.21, -2.83, -20.19, 2.37, 1.70, 7.33, repro,
2015-12-01,-2.33, -2.55, -15.89, 2.38, 1.70, 7.32, repro,
2015-12-02,-0.27, 2.54, -20.99, 2.37, 1.68, 7.25, repro,
2015-12-20,6.33, 1.56, -12.77, 5.61, 3.19, 15.53, repro,
2015-12-21,-0.74, 2.57, -11.39, 2.43, 1.68, 7.43, repro,
2015-12-22,-2.02, -0.58, -5.46, 2.43, 1.69, 7.42, repro,
2015-12-23,-0.93, 3.34, -14.41, 2.37, 1.67, 7.40, repro,
2015-12-24,-0.05, 1.83, -17.35, 2.36, 1.68, 7.39, repro,
2015-12-25,1.00, 2.39, -20.91, 2.37, 1.66, 7.36, repro,
2015-12-26,-2.88, 1.69, -32.95, 2.36, 1.67, 7.37, repro,
2015-12-27,-4.24, 1.96, -32.71, 2.44, 1.68, 7.54, repro,
2015-12-28,-1.32, 1.75, -22.71, 2.44, 1.72, 7.55, repro,
2015-12-29,0.59, 2.27, -32.13, 2.41, 1.69, 7.43, repro,
2015-12-30,2.01, 2.07, -29.93, 2.36, 1.68, 7.32, repro,
2015-12-31,1.53, 2.01, -25.64, 2.38, 1.68, 7.37, repro,
2016-01-01,-0.34, 2.21, -29.77, 2.39, 1.66, 7.39, repro,
2016-01-02,2.33, 2.45, -25.49, 2.42, 1.72, 7.55, repro,
2016-01-03,2.49, 4.86, -23.44, 2.39, 1.67, 7.33, repro,
2016-01-04,2.54, 9.37, -22.41, 2.37, 1.66, 7.32, repro,
2016-01-05,-0.18, -0.27, -17.27, 2.39, 1.68, 7.37, repro,
2016-01-06,-1.99, 1.11, -27.16, 2.46, 1.69, 7.43, repro,
2016-01-07,1.39, 1.90, -24.80, 2.43, 1.70, 7.58, repro,
2016-01-08,2.02, 2.48, -25.86, 2.44, 1.74, 7.77, repro,
2016-01-09,1.30, 2.66, -28.46, 2.43, 1.71, 7.53, repro,
2016-01-10,-1.53, 1.73, -31.32, 2.43, 1.68, 7.49, repro,
2016-01-11,0.16, 5.27, -24.85, 2.36, 1.66, 7.30, repro,
2016-01-12,-0.82, 5.34, -24.16, 2.36, 1.66, 7.24, repro,
2016-01-13,0.62, 5.23, -32.00, 2.40, 1.68, 7.34, repro,
2016-01-14,0.21, 4.14, -22.71, 2.41, 1.69, 7.35, repro,
2016-01-15,1.19, 2.06, -28.85, 2.50, 1.74, 7.60, repro,
2016-01-16,0.15, 9.43, -17.57, 2.38, 1.67, 7.26, repro,
2016-01-17,-3.60, 5.94, -21.38, 3.23, 2.37, 10.05, repro,
2016-01-18,1.77, 3.26, -25.92, 4.91, 3.17, 13.95, repro,
2016-01-19,1.76, 3.88, -24.16, 2.39, 1.69, 7.38, repro,
2016-01-20,0.65, 2.41, -22.51, 2.39, 1.69, 7.36, repro,
2016-01-21,2.56, 9.48, -34.64, 2.40, 1.69, 7.39, repro,
2016-01-22,3.98, 6.47, -23.95, 2.36, 1.66, 7.19, repro,
2016-01-23,0.78, -0.08, -29.59, 2.35, 1.65, 7.21, repro,
2016-01-24,-0.41, 3.15, -30.79, 2.38, 1.68, 7.31, repro,
2016-01-25,-0.28, 1.68, -25.43, 2.42, 1.70, 7.46, repro,
2016-01-26,-2.08, 6.37, -30.27, 2.44, 1.73, 7.53, repro,
2016-01-27,-3.45, 6.94, -27.86, 2.51, 1.72, 7.64, repro,
2016-01-28,0.88, 5.93, -27.78, 2.43, 1.69, 7.43, repro,
2016-01-29,28.49, 299.65, -488.48, 631.49, 759.43, 1043.74, repro,
2016-02-03,-1.54, 0.46, -27.49, 6.24, 3.88, 18.94, repro,
2016-02-04,0.24, 5.48, -24.08, 2.44, 1.72, 7.46, repro,
2016-02-05,-4.59, -1.12, -38.00, 2.46, 1.72, 7.55, repro,
2016-02-06,-1.64, 2.57, -31.70, 2.39, 1.68, 7.40, repro,
2016-02-07,-4.18, 4.23, -39.87, 2.43, 1.69, 7.42, repro,
2016-02-08,-2.34, 0.88, -40.29, 2.41, 1.68, 7.38, repro,
2016-02-09,-2.17, -2.23, -38.20, 2.42, 1.68, 7.39, repro,
2016-02-10,4.01, 8.03, -32.88, 2.42, 1.68, 7.43, repro,
2016-02-11,0.08, 5.37, -39.76, 2.41, 1.69, 7.48, repro,
2016-02-12,-0.18, 5.66, -40.16, 2.41, 1.68, 7.45, repro,
2016-02-13,-1.19, 2.97, -37.74, 2.35, 1.67, 7.38, repro,
2016-02-14,-1.44, 3.46, -30.86, 2.41, 1.69, 7.43, repro,
2016-02-15,-1.45, 1.77, -27.04, 2.44, 1.69, 7.46, repro,
2016-02-16,-0.04, 2.37, -34.55, 2.43, 1.69, 7.50, repro,
2016-02-17,2.91, 3.83, -35.42, 2.36, 1.68, 7.49, repro,
2016-02-18,1.19, 1.04, -18.02, 2.36, 1.68, 7.40, repro,
2016-02-19,-6.11, 1.67, -20.72, 5.34, 3.93, 15.78, repro,
2016-02-20,-0.20, 1.07, -32.11, 5.08, 3.16, 14.49, repro,
2016-02-21,-1.41, 1.78, -35.92, 2.40, 1.68, 7.37, repro,
2016-02-22,-0.72, 2.21, -40.29, 2.43, 1.69, 7.41, repro,
2016-02-23,-1.68, 0.61, -33.88, 2.46, 1.70, 7.45, repro,
2016-02-24,-4.72, -6.29, -42.41, 2.43, 1.70, 7.50, repro,
2016-02-25,-2.83, -2.46, -39.19, 2.46, 1.70, 7.47, repro,
2016-02-26,0.04, -0.77, -26.10, 2.53, 1.76, 7.60, repro,
2016-02-27,-0.52, 3.05, -28.75, 2.40, 1.68, 7.37, repro,
2016-02-28,-1.21, 2.72, -23.64, 2.43, 1.72, 7.46, repro,
2016-02-29,0.29, 1.49, -34.06, 2.39, 1.71, 7.39, repro,
2016-03-01,0.65, 4.75, -32.94, 2.41, 1.73, 7.44, repro,
2016-03-02,-2.80, 0.55, -30.79, 2.44, 1.70, 7.44, repro,
2016-03-03,-2.26, 2.35, -26.24, 2.45, 1.75, 7.51, repro,
2016-03-04,-1.63, 3.36, -34.80, 2.45, 1.73, 7.59, repro,
2016-03-06,0.30, 1.97, -14.89, 2.49, 1.75, 7.53, repro,
2016-03-07,-1.87, -0.58, -24.80, 2.54, 1.77, 7.56, repro,
2016-03-08,-2.88, -2.49, -35.49, 2.56, 1.81, 7.78, repro,
2016-03-09,-1.84, 2.58, -27.30, 2.42, 1.72, 7.43, repro,
2016-03-10,0.11, 3.64, -25.82, 2.43, 1.69, 7.38, repro,
2016-03-11,0.76, 1.91, -24.99, 2.41, 1.68, 7.36, repro,
2016-03-12,-1.03, 2.60, -26.80, 2.72, 1.94, 8.41, repro,
2016-03-13,1.50, 1.30, -25.41, 2.45, 1.74, 7.63, repro,
2016-03-14,-1.22, 2.76, -29.54, 2.44, 1.76, 7.56, repro,
2016-03-15,-3.04, 1.24, -37.78, 2.38, 1.70, 7.39, repro,
2016-03-16,-2.24, 0.06, -30.52, 2.43, 1.75, 7.56, repro,
2016-03-17,-1.84, 0.75, -33.27, 2.55, 1.81, 7.72, repro,
2016-03-18,-2.09, -0.75, -42.30, 2.43, 1.75, 7.53, repro,
2016-03-19,-10.37, -4.59, -45.63, 2.62, 1.81, 8.03, repro,
2016-03-20,5.74, -0.62, -39.99, 2.52, 1.71, 7.46, repro,
2016-03-21,1.16, 2.11, -35.93, 2.37, 1.67, 7.21, repro,
2016-03-22,-2.43, -0.18, -33.38, 2.31, 1.65, 7.22, repro,
2016-03-23,-3.55, 2.26, -32.19, 2.37, 1.69, 7.33, repro,
2016-03-24,-3.82, 1.02, -31.12, 2.38, 1.68, 7.31, repro,
2016-03-25,-2.09, 0.24, -35.74, 2.49, 1.72, 7.56, repro,
2016-03-26,-0.62, -0.17, -36.13, 2.50, 1.70, 7.49, repro,
2016-03-27,-2.23, 0.88, -40.96, 2.42, 1.68, 7.34, repro,
2016-03-28,-3.61, 1.20, -37.87, 2.37, 1.67, 7.36, repro,
2016-03-29,-0.61, 0.38, -29.09, 2.46, 1.72, 7.52, repro,
2016-03-30,0.61, 1.73, -27.67, 2.43, 1.71, 7.46, repro,
2016-03-31,-0.95, 0.06, -43.00, 2.41, 1.70, 7.41, repro,
2016-04-01,-0.76, 0.62, -33.50, 2.49, 1.71, 7.54, repro,
2016-04-02,-3.21, -3.31, -33.52, 2.36, 1.68, 7.36, repro,
2016-04-03,-2.46, -2.18, -27.71, 2.37, 1.68, 7.42, repro,
2016-04-04,1.29, -0.79, -31.75, 2.33, 1.67, 7.32, repro,
2016-04-05,-1.64, 4.58, -32.15, 2.40, 1.68, 7.41, repro,
2016-04-06,-4.99, 3.97, -49.58, 2.38, 1.69, 7.42, repro,
2016-04-07,-2.63, -0.55, -37.69, 2.51, 1.77, 7.72, repro,
2016-04-08,0.37, -2.73, -37.94, 2.36, 1.68, 7.31, repro,
2016-04-09,-2.62, -2.76, -44.47, 2.38, 1.66, 7.33, repro,
2016-04-10,0.92, -3.48, -35.83, 2.42, 1.69, 7.40, repro,
2016-04-11,-0.41, -1.87, -28.33, 2.43, 1.69, 7.43, repro,
2016-04-12,-0.69, 0.96, -27.87, 2.43, 1.72, 7.51, repro,
2016-04-13,0.66, -0.20, -36.35, 2.34, 1.66, 7.24, repro,
2016-04-14,0.35, -2.76, -28.76, 2.37, 1.67, 7.30, repro,
2016-04-15,1.04, -0.52, -31.01, 2.36, 1.67, 7.31, repro,
2016-04-18,0.12, -0.77, -38.73, 2.40, 1.68, 7.47, repro,
2016-04-19,2.04, -2.92, -37.18, 2.48, 1.71, 7.61, repro,
2016-04-20,2.61, -2.67, -31.51, 2.52, 1.71, 7.73, repro,
2016-04-21,4.90, -3.34, -38.62, 2.39, 1.68, 7.37, repro,
2016-04-22,4.43, -1.61, -30.37, 2.38, 1.67, 7.37, repro,
2016-04-23,1.64, -1.15, -33.06, 2.44, 1.71, 7.48, repro,
2016-04-24,2.08, -2.98, -37.49, 2.48, 1.70, 7.51, repro,
2016-04-25,0.57, -1.34, -32.21, 2.45, 1.68, 7.44, repro,
2016-04-26,0.70, -2.31, -27.35, 2.49, 1.70, 7.53, repro,
2016-04-27,0.73, -2.04, -39.55, 2.43, 1.66, 7.31, repro,
2016-04-28,0.85, -0.86, -30.53, 2.40, 1.70, 7.41, repro,
2016-04-29,0.20, -2.24, -34.98, 2.48, 1.69, 7.58, repro,
2016-04-30,0.08, -0.68, -29.98, 2.43, 1.68, 7.40, repro,
2016-05-01,0.55, -4.92, -39.36, 2.41, 1.70, 7.45, repro,
2016-05-02,-0.38, -4.73, -33.52, 2.46, 1.70, 7.46, repro,
2016-05-03,10.08, -0.68, -38.79, 2.44, 1.70, 7.44, repro,
2016-05-04,5.56, -0.78, -35.10, 2.43, 1.70, 7.49, repro,
2016-05-05,-1.69, -3.24, -38.77, 2.48, 1.74, 7.63, repro,
2016-05-06,0.39, -2.68, -29.85, 2.57, 1.73, 7.67, repro,
2016-05-07,1.65, -3.27, -22.55, 2.62, 1.80, 7.79, repro,
2016-05-08,-2.37, -1.61, -22.29, 2.45, 1.72, 7.44, repro,
2016-05-09,0.70, 0.93, -22.59, 2.38, 1.66, 7.27, repro,
2016-05-10,0.16, -2.80, -40.19, 2.38, 1.66, 7.33, repro,
2016-05-11,-0.78, -2.36, -39.26, 2.38, 1.67, 7.34, repro,
2016-05-12,-3.37, 3.16, -32.31, 2.37, 1.68, 7.44, repro,
2016-05-13,-2.69, -2.78, -34.35, 2.39, 1.68, 7.38, repro,
2016-05-14,3.39, -2.01, -27.33, 2.35, 1.66, 7.29, repro,
2016-05-15,-3.60, -1.18, -45.94, 2.37, 1.67, 7.39, repro,
2016-05-16,-3.05, -2.33, -30.44, 2.43, 1.67, 7.40, repro,
2016-05-17,-1.89, -1.89, -27.02, 2.49, 1.69, 7.49, repro,
2016-05-18,-4.25, -5.56, -28.43, 2.42, 1.70, 7.39, repro,
2016-05-19,-0.38, -1.81, -24.12, 2.46, 1.72, 7.58, repro,
2016-05-20,0.76, -2.61, -25.50, 2.40, 1.65, 7.34, repro,
2016-05-21,-1.39, -3.14, -33.17, 2.34, 1.66, 7.30, repro,
2016-05-22,-1.44, -3.25, -24.22, 2.35, 1.65, 7.26, repro,
2016-05-23,-0.36, -3.38, -32.84, 2.45, 1.70, 7.49, repro,
2016-05-24,1.94, -2.32, -27.19, 2.41, 1.68, 7.41, repro,
2016-05-25,2.62, -2.99, -26.32, 2.42, 1.67, 7.37, repro,
2016-05-26,2.16, -4.80, -28.01, 2.43, 1.68, 7.38, repro,
2016-05-27,-1.67, -1.11, -27.37, 2.51, 1.70, 7.41, repro,
2016-05-28,-3.20, -0.21, -28.87, 2.40, 1.65, 7.31, repro,
2016-05-29,-3.63, 0.85, -31.53, 2.40, 1.67, 7.40, repro,
2016-05-30,-0.76, -2.35, -34.77, 2.35, 1.68, 7.35, repro,
2016-05-31,0.94, -3.88, -40.62, 2.40, 1.67, 7.46, repro,
2016-06-01,-0.11, -0.32, -21.00, 2.51, 1.70, 7.55, repro,
2016-06-02,4.03, 5.59, -36.83, 2.35, 1.67, 7.51, repro,
2016-06-03,-5.49, -1.70, -41.04, 2.39, 1.70, 7.48, repro,
2016-06-04,-0.30, -4.83, -48.21, 2.40, 1.67, 7.34, repro,
2016-06-05,-1.91, -5.69, -37.44, 2.42, 1.67, 7.41, repro,
2016-06-06,1.80, -4.06, -34.48, 2.41, 1.69, 7.46, repro,
2016-06-07,-1.36, -1.89, -22.75, 2.51, 1.70, 7.57, repro,
2016-06-08,2.20, 2.55, -17.62, 2.47, 1.68, 7.47, repro,
2016-06-09,2.13, 0.28, -22.73, 2.33, 1.68, 7.26, repro,
2016-06-10,0.77, -2.17, -26.75, 2.45, 1.71, 7.60, repro,
2016-06-11,-3.97, -4.07, -35.18, 2.36, 1.64, 7.32, repro,
2016-06-12,-2.48, -3.91, -36.06, 2.43, 1.65, 7.35, repro,
2016-06-13,-1.80, -3.98, -40.43, 2.41, 1.67, 7.44, repro,
2016-06-14,-0.05, 3.03, -28.94, 2.64, 1.92, 8.28, repro,
2016-06-15,-1.89, -3.99, -16.19, 2.32, 1.64, 7.17, repro,
2016-06-16,-1.91, -3.48, -32.38, 2.40, 1.68, 7.40, repro,
2016-06-17,-1.51, -4.73, -30.61, 2.41, 1.67, 7.39, repro,
2016-06-18,1.96, -2.89, -33.33, 2.36, 1.66, 7.29, repro,
2016-06-19,-3.11, -4.61, -31.95, 2.48, 1.68, 7.39, repro,
2016-06-20,2.58, -1.19, -29.29, 2.46, 1.70, 7.53, repro,
2016-06-21,-2.42, -3.28, -18.22, 2.42, 1.66, 7.38, repro,
2016-06-22,-2.59, -3.39, -17.49, 2.45, 1.71, 7.58, repro,
2016-06-23,0.76, 3.90, -25.04, 2.44, 1.67, 7.46, repro,
2016-06-24,-0.58, -1.95, -28.81, 2.39, 1.67, 7.51, repro,
2016-06-25,-1.74, -2.81, -24.03, 2.38, 1.66, 7.34, repro,
2016-06-26,-1.41, -3.64, -29.08, 2.43, 1.66, 7.45, repro,
2016-06-27,0.53, -9.77, -24.28, 2.45, 1.67, 7.43, repro,
2016-06-28,-3.26, -7.42, -26.79, 2.46, 1.67, 7.51, repro,
2016-06-29,-2.76, -5.25, -36.28, 2.49, 1.67, 7.57, repro,
2016-06-30,-1.57, -4.51, -26.02, 2.37, 1.68, 7.41, repro,
2016-07-01,-4.81, -5.52, -29.77, 2.51, 1.70, 7.67, repro,
2016-07-02,-2.87, -6.35, -31.77, 2.39, 1.65, 7.36, repro,
2016-07-03,-5.22, 0.13, -18.88, 2.52, 1.69, 7.68, repro,
2016-07-04,-3.99, 1.45, -20.83, 2.44, 1.69, 7.58, repro,
2016-07-05,-4.08, 0.02, -23.07, 2.34, 1.67, 7.35, repro,
2016-07-06,-1.34, -1.68, -17.19, 2.37, 1.66, 7.45, repro,
2016-07-07,-2.27, -6.61, -14.35, 2.36, 1.65, 7.34, repro,
2016-07-08,-5.27, -11.05, -24.01, 2.49, 1.71, 7.66, repro,
2016-07-09,-1.35, -2.75, -29.84, 2.46, 1.78, 7.84, repro,
2016-07-10,-0.56, -3.88, -28.20, 2.36, 1.66, 7.29, repro,
2016-07-11,-0.53, -3.38, -20.79, 2.32, 1.64, 7.22, repro,
2016-07-12,0.07, -4.27, -23.32, 2.41, 1.65, 7.44, repro,
2016-07-13,-3.15, -4.70, -31.33, 2.45, 1.69, 7.55, repro,
2016-07-14,-4.76, -6.14, -27.64, 2.41, 1.67, 7.37, repro,
2016-07-15,-4.83, -0.60, -17.49, 2.41, 1.67, 7.39, repro,
2016-07-16,-2.32, -2.37, -21.83, 2.40, 1.65, 7.31, repro,
2016-07-17,-0.57, -4.08, -25.07, 2.38, 1.64, 7.29, repro,
2016-07-18,-5.95, -7.50, -26.13, 2.39, 1.66, 7.38, repro,
2016-07-19,-6.42, -7.63, -26.07, 2.41, 1.65, 7.31, repro,
2016-07-20,-6.61, -10.59, -19.17, 2.46, 1.72, 7.48, repro,
2016-07-21,-2.22, -3.24, -17.45, 2.44, 1.69, 7.48, repro,
2016-07-22,-1.45, -1.75, -17.45, 2.40, 1.69, 7.47, repro,
2016-07-23,-2.64, -3.12, -14.81, 2.36, 1.65, 7.34, repro,
2016-07-24,-0.94, -3.50, -17.81, 2.38, 1.68, 7.41, repro,
2016-07-25,-0.86, -4.09, -13.70, 2.41, 1.69, 7.34, repro,
2016-07-26,-1.25, -4.20, -20.02, 2.37, 1.71, 7.42, repro,
2016-07-27,-0.72, -3.32, -18.54, 2.43, 1.76, 7.66, repro,
2016-07-28,0.48, -3.50, -15.20, 2.32, 1.66, 7.29, repro,
2016-07-29,-2.06, -4.79, -16.91, 2.45, 1.72, 7.57, repro,
2016-07-30,-2.59, -4.92, -14.84, 2.34, 1.68, 7.32, repro,
2016-07-31,-0.49, -0.84, -10.44, 2.33, 1.65, 7.24, repro,
2016-08-01,-1.50, -3.14, -17.50, 2.35, 1.67, 7.29, repro,
2016-08-02,-2.46, -1.60, -26.37, 2.38, 1.67, 7.34, repro,
2016-08-03,-4.25, 0.04, -21.25, 2.35, 1.67, 7.29, repro,
2016-08-04,0.34, -4.49, -23.54, 2.35, 1.66, 7.34, repro,
2016-08-05,-2.37, -5.55, -11.91, 2.31, 1.66, 7.24, repro,
2016-08-06,-1.29, -5.53, -14.01, 2.43, 1.70, 7.44, repro,
2016-08-07,1.11, -2.59, -10.86, 2.41, 1.67, 7.41, repro,
2016-08-08,-3.30, -3.64, -17.14, 2.35, 1.65, 7.24, repro,
2016-08-09,-1.50, -1.32, -10.81, 2.36, 1.63, 7.24, repro,
2016-08-10,-0.92, -2.82, -18.19, 2.34, 1.64, 7.24, repro,
2016-08-11,-2.45, -4.44, -20.87, 2.36, 1.66, 7.28, repro,
2016-08-12,-0.53, -3.13, -17.85, 2.37, 1.66, 7.28, repro,
2016-08-13,-1.28, -4.22, -24.37, 2.39, 1.67, 7.27, repro,
2016-08-14,-0.78, -2.47, -15.46, 2.33, 1.64, 7.22, repro,
2016-08-15,0.64, -4.05, -15.32, 2.34, 1.65, 7.22, repro,
2016-08-16,-0.90, -4.36, -14.52, 2.39, 1.68, 7.40, repro,
2016-08-17,-0.92, -3.82, -17.85, 2.34, 1.66, 7.25, repro,
2016-08-18,-1.26, -3.56, -17.30, 2.39, 1.66, 7.34, repro,
2016-08-21,1.70, -1.75, -9.19, 2.32, 1.64, 7.19, repro,
2016-08-22,-0.95, 0.11, -2.30, 2.33, 1.65, 7.26, repro,
2016-08-23,-1.72, -2.63, -13.55, 2.33, 1.66, 7.26, repro,
2016-08-25,1.35, -3.21, -16.76, 2.35, 1.63, 7.24, repro,
2016-08-26,-0.74, -1.93, -14.75, 2.35, 1.66, 7.34, repro,
2016-08-27,-4.73, 0.27, -8.92, 2.30, 1.63, 7.20, repro,
2016-08-28,-1.85, 2.09, -14.46, 2.29, 1.64, 7.20, repro,
2016-08-29,4.23, 4.33, -12.07, 2.26, 1.62, 7.11, repro,
2016-08-30,4.61, -2.44, -15.16, 2.34, 1.63, 7.21, repro,